Regional Weather Roundup
Issued by NWS

Home | Current Version | Previous Version | Text Only | Print | Product List | Glossary On
Versions: 1 2 3 4 5 6 7 8 9 10 11 12 13 14 15 16 17 18 19 20 21 22 23 24 25 26 27 28 29 30 31 32 33 34 35 36 37 38 39 40 41 42 43 44 45 46 47 48 49 50
000
ASUS44 KFWD 150215
RWRTX
NORTH TEXAS HOURLY WEATHER ROUNDUP
NATIONAL WEATHER SERVICE FORT WORTH TX
900 PM CDT SUN SEP 14 2014

NOTE: "FAIR" INDICATES FEW OR NO CLOUDS BELOW 12,000 FEET WITH NO
SIGNIFICANT WEATHER AND/OR OBSTRUCTIONS TO VISIBILITY.

TXZ118-119-150300-
DALLAS/FORT WORTH METROPLEX

CITY           SKY/WX    TMP DP  RH WIND       PRES   REMARKS
DFW AIRPORT    MOCLDY    74  63  68 NE3       30.13R
DALLAS LOVE    MOCLDY    76  64  66 N3        30.13R
FTW MEACHAM    MOCLDY    75  63  66 E5        30.13R
DAL-EXECUTIVE  MOCLDY    74  63  68 NW5       30.13R
FTW-ALLIANCE   MOCLDY    71  62  73 E5        30.13R
FTW-NAS-JRB    PTCLDY    79  62  56 E5        30.17S
FTW-SPINKS     PTCLDY    72  63  73 CALM      30.15S
ARLINGTON      MOCLDY    73  64  73 CALM      30.13S
GRAND PRAIRIE  MOCLDY    74  62  65 CALM      30.15R
ADDISON        MOCLDY    75  63  64 NE5       30.14R
LANCASTER      MOCLDY    73  62  69 CALM      30.14R
$$

TXZ091>094-102>105-117-120-121-131>134-150300-
NORTH CENTRAL TEXAS

CITY           SKY/WX    TMP DP  RH WIND       PRES   REMARKS
SHRMAN/DENISON CLOUDY    71  66  83 CALM      30.16R
GAINESVILLE    CLOUDY    70  65  83 E3        30.16S
BOWIE          MOCLDY    69  65  86 CALM      30.15R
BRIDGEPORT     MOCLDY    71  62  71 SE3       30.16R
DECATUR        MOCLDY    70  62  75 SE5       30.15R
DENTON         CLOUDY    72  63  73 CALM      30.14R
MCKINNEY       MOCLDY    74  64  71 CALM      30.14R
GREENVILLE     PTCLDY    72  63  73 CALM      30.14S
ROCKWALL       MOCLDY    73  65  75 CALM      30.13R
TERRELL        PTCLDY    76  65  68 CALM      30.14R
WAXAHACHIE     MOCLDY    73  62  68 CALM      30.15R
GRANBURY       PTCLDY    76  64  64 E5        30.15R
$$

TXZ083>090-098>101-113>116-127>130-139>142-154-155-150300-
WESTERN NORTH TEXAS

CITY           SKY/WX    TMP DP  RH WIND       PRES   REMARKS
WICHITA FALLS  CLOUDY    73  64  73 SE9       30.12S
WF-KICKAPOO    CLOUDY    74  62  67 SE8       30.14R
VERNON         CLOUDY    74  64  69 CALM      30.13S
ABILENE        CLOUDY    78  61  55 SW3       30.16R
ABILENE-DYESS  CLOUDY    76  61  59 S2        30.15R
BRECKENRIDGE   CLOUDY    77  63  61 SE6       30.13S
GRAHAM         MOCLDY    74  61  63 CALM      30.12S
MINERAL WELLS  PTCLDY    72  62  71 SE6       30.13R
STEPHENVILLE   MOCLDY    74  63  67 CALM      30.17S
COMANCHE         N/A     74  63  69 SE5       30.15S
BROWNWOOD      CLOUDY    77  63  61 CALM      30.15R
COLEMAN        CLOUDY    76  60  58 W3        30.16S
BRADY          CLEAR     73  66  78 NE5       30.15S
$$

TXZ143>147-156>162-174-175-150300-
CENTRAL TEXAS

CITY           SKY/WX    TMP DP  RH WIND       PRES   REMARKS
WACO           PTCLDY    69  64  84 SW3       30.14R
WACO-MCGREGOR  CLEAR     72  57  60 CALM      30.15R
HILLSBORO      MOCLDY    73  63  71 CALM      30.14R
CORSICANA      MOCLDY    75  65  70 CALM      30.14R
MEXIA          PTCLDY    72  65  79 CALM      30.14R
HEARNE           N/A     74  69  81 CALM      30.13R
CAMERON        CLEAR     73  66  78 CALM      30.14R
TEMPLE         PTCLDY    73  59  60 NE6       30.13S
KILLEEN        PTCLDY    75  66  73 E5        30.14R
KILLEEN-SKYLRK MOCLDY    75  61  60 E7        30.13S
FORT HOOD      MOCLDY    77  31  18 NE5       30.14R
GATESVILLE     MOCLDY    73  64  73 E6        30.16R
HAMILTON       CLOUDY    75  63  66 E8        30.16R
LAMPASAS       CLOUDY    76  65  70 E3        30.14R
$$

TXZ095>097-106>112-122>126-135>138-148>153-164>167-150300-
EAST TEXAS

CITY           SKY/WX    TMP DP  RH WIND       PRES   REMARKS
PARIS          MOCLDY    72  63  73 CALM      30.16R
SULPHUR SPRNGS PTCLDY    73  64  75 NE6       30.16S
MOUNT PLEASANT CLEAR     72  65  79 N3        30.16R
GILMER         CLEAR     75  66  73 NE3       30.16R
MINEOLA        CLEAR     72  66  83 CALM      30.14S
TYLER          CLEAR     75  67  76 CALM      30.13R
LONGVIEW       PTCLDY    76  64  66 NE5       30.12R
MARSHALL       PTCLDY    76  67  74 CALM      30.15R
ATHENS         CLEAR     70  64  83 CALM      30.13R
PALESTINE      CLEAR     73  69  85 CALM      30.14R
JACKSONVILLE   PTCLDY    76  66  70 CALM      30.15S
HENDERSON      PTCLDY    73  69  87 CALM      30.14R
NACOGDOCHES    PTCLDY    72  68  88 NW3       30.13R
LUFKIN         MOCLDY    79  69  71 NE5       30.11R
$$

SUPPLEMENTAL OBSERVATIONS (CENTRAL)

CITY           SKY/WX    TMP DP  RH WIND       PRES   REMARKS
LAKE TEXOMA      N/A     72  64  78 E2          N/A
CADDO GRASSLND   N/A     70  66  88 E2          N/A
PAT MAYSE LAKE   N/A     72  64  78 CALM        N/A
ATHENS           N/A     72  66  83 CALM        N/A
PALESTINE        N/A     72  68  88 CALM        N/A
LAKE LIMESTONE   N/A     75  68  78 N1          N/A
MCGREGOR         N/A     72  63  73 NE2         N/A
TEMPLE           N/A     73  63  68 NE6         N/A
$$

SUPPLEMENTAL OBSERVATIONS (WEST)

CITY           SKY/WX    TMP DP  RH WIND       PRES   REMARKS
MILLERS CREEK    N/A    N/A N/A N/A E2          N/A
POSSUM KINGDOM   N/A     75  61  60 SE5         N/A
LBJ GRASSLAND    N/A     72  63  73 E3          N/A
GRANBURY         N/A     75  63  64 E5          N/A
COMANCHE         N/A    N/A N/A N/A SE5         N/A
HAMBY            N/A     79  61  53 SW5         N/A
COLORADO BEND    N/A     75  63  64 E3          N/A
$$

SUPPLEMENTAL OBSERVATIONS (EAST)

CITY           SKY/WX    TMP DP  RH WIND       PRES   REMARKS
CLARKSVILLE      N/A     70  64  83 CALM        N/A
TEXARKANA        N/A     70  66  88 CALM        N/A
LINDEN           N/A     72  64  78 CALM        N/A
CADDO LAKE       N/A     68  66  94 CALM        N/A
GILMER           N/A     73  64  73 NE1         N/A
HENDERSON        N/A     73  68  83 CALM        N/A
LUFKIN           N/A     79  68  69 MISG        N/A
N SABINE NF      N/A     72  66  83 MISG        N/A
S SABINE NF      N/A     73  68  83 E3          N/A
$$

SUPPLEMENTAL OBSERVATIONS ARE A COLLECTION OF AUTOMATED INSTRUMENTS
THAT ARE MAINTAINED BY A VARIETY OF FEDERAL AND STATE AGENCIES.
CERTAIN ELEMENTS...SUCH AS HUMIDITY VALUES AND SUSTAINED WIND
SPEEDS...MAY BE APPROXIMATED.



USA.gov is the U.S. government's official web portal to all federal, state and local government web resources and services.